Location: Boston
(42.3580°N, 71.0600°W)
Time: 01:55:18
(UTC-04:00)

ISS - Pass Details

Date: 07 October 2017
Orbit: 401 x 408 km, 51.6° (Epoch: 18 October)

Event Time Altitude Azimuth Distance (km) Brightness Sun altitude
Rises 20:42:40 0° 307° (NW) 2,329 1.1 -27.8°
Reaches altitude 10° 20:44:51 10° 316° (NW) 1,468 -0.2 -28.2°
Enters shadow 20:45:32 15° 321° (NW) 1,212 -0.8 -28.3°
